TimeEDT,TemperatureF,Dew PointF,Humidity,Sea Level PressureIn,VisibilityMPH,Wind Direction,Wind SpeedMPH,Gust SpeedMPH,PrecipitationIn,Events,Conditions,WindDirDegrees,DateUTC
12:54 AM,54.0,48.0,80,30.12,10.0,Calm,Calm,-,N/A,,Clear,0,2013-07-03 04:54:00
1:54 AM,54.0,48.0,80,30.12,10.0,Calm,Calm,-,N/A,,Clear,0,2013-07-03 05:54:00
2:54 AM,50.0,46.9,89,30.12,10.0,Calm,Calm,-,N/A,,Mostly Cloudy,0,2013-07-03 06:54:00
3:54 AM,54.0,48.9,83,30.11,10.0,Calm,Calm,-,N/A,,Overcast,0,2013-07-03 07:54:00
4:54 AM,53.1,48.9,86,30.11,10.0,Calm,Calm,-,N/A,,Mostly Cloudy,0,2013-07-03 08:54:00
5:54 AM,52.0,48.9,89,30.12,10.0,Calm,Calm,-,N/A,,Overcast,0,2013-07-03 09:54:00
6:54 AM,54.0,50.0,86,30.13,10.0,Calm,Calm,-,N/A,,Overcast,0,2013-07-03 10:54:00
7:54 AM,60.1,50.0,69,30.13,10.0,Calm,Calm,-,N/A,,Clear,0,2013-07-03 11:54:00
8:54 AM,64.9,50.0,58,30.14,10.0,SE,5.8,-,N/A,,Clear,140,2013-07-03 12:54:00
9:54 AM,69.1,46.9,45,30.14,10.0,SSE,6.9,-,N/A,,Clear,160,2013-07-03 13:54:00
10:54 AM,71.1,45.0,39,30.14,10.0,ESE,4.6,-,N/A,,Clear,110,2013-07-03 14:54:00
11:54 AM,73.9,46.9,38,30.13,10.0,South,5.8,-,N/A,,Clear,180,2013-07-03 15:54:00
12:54 PM,75.9,48.0,37,30.12,10.0,East,8.1,16.1,N/A,,Scattered Clouds,100,2013-07-03 16:54:00
1:54 PM,77.0,48.9,37,30.11,10.0,ESE,5.8,-,N/A,,Partly Cloudy,120,2013-07-03 17:54:00
2:54 PM,78.1,48.9,36,30.08,10.0,Variable,5.8,-,N/A,,Mostly Cloudy,0,2013-07-03 18:54:00
3:54 PM,78.1,52.0,40,30.08,10.0,ENE,8.1,-,N/A,,Mostly Cloudy,60,2013-07-03 19:54:00
4:54 PM,79.0,52.0,39,30.07,10.0,North,5.8,-,N/A,,Partly Cloudy,360,2013-07-03 20:54:00
5:54 PM,77.0,53.1,43,30.06,10.0,NNE,11.5,-,N/A,,Clear,20,2013-07-03 21:54:00
6:54 PM,75.9,51.1,42,30.04,10.0,NE,11.5,-,N/A,,Clear,40,2013-07-03 22:54:00
7:54 PM,75.0,53.1,46,30.04,10.0,ENE,8.1,-,N/A,,Mostly Cloudy,70,2013-07-03 23:54:00
8:54 PM,72.0,55.0,55,30.04,9.0,NE,5.8,-,N/A,,Mostly Cloudy,50,2013-07-04 00:54:00
9:54 PM,69.1,55.9,63,30.05,10.0,ENE,3.5,-,N/A,,Mostly Cloudy,60,2013-07-04 01:54:00
10:54 PM,62.1,55.9,80,30.06,9.0,Calm,Calm,-,N/A,,Clear,0,2013-07-04 02:54:00
11:54 PM,61.0,55.9,83,30.06,9.0,Calm,Calm,-,N/A,,Clear,0,2013-07-04 03:54:00